<?xml version="1.0" encoding="UTF-8" standalone="no" ?>
<gpx xmlns="http://www.topografix.com/GPX/1/1" xmlns:xsi="http://www.w3.org/2001/XMLSchema-instance" xsi:schemaLocation="http://www.topografix.com/GPX/1/1 http://www.topografix.com/GPX/1/1/gpx.xsd" version="1.1" creator="VisuGPX - https://www.visugpx.com">
  <metadata>
    <name>Parcours VTT Aglo 2021</name>
  </metadata>
  <trk>
    <name><![CDATA[Rouge Cornillon St Laurent]]></name>
    <extensions>
      <line xmlns="http://www.topografix.com/GPX/gpx_style/0/2">
        <color>fa0000</color>
        <width>4</width>
      </line>
    </extensions>
    <trkseg>
      <trkpt lat="44.21832" lon="4.48554">
        <ele>87</ele>
        <time>2021-07-04T13:09:03Z</time>
      </trkpt>
      <trkpt lat="44.21832" lon="4.48554">
        <ele>87</ele>
        <time>2021-07-04T13:09:03Z</time>
      </trkpt>
      <trkpt lat="44.2188" lon="4.48604">
        <ele>88</ele>
        <time>2021-07-04T13:09:17Z</time>
      </trkpt>
      <trkpt lat="44.21862" lon="4.48742">
        <ele>92</ele>
        <time>2021-07-04T13:09:40Z</time>
      </trkpt>
      <trkpt lat="44.21894" lon="4.48818">
        <ele>99</ele>
        <time>2021-07-04T13:09:55Z</time>
      </trkpt>
      <trkpt lat="44.21996" lon="4.48759">
        <ele>106</ele>
        <time>2021-07-04T13:10:21Z</time>
      </trkpt>
      <trkpt lat="44.22192" lon="4.4871">
        <ele>116</ele>
        <time>2021-07-04T13:11:08Z</time>
      </trkpt>
      <trkpt lat="44.22251" lon="4.4876">
        <ele>128</ele>
        <time>2021-07-04T13:11:24Z</time>
      </trkpt>
      <trkpt lat="44.22322" lon="4.48763">
        <ele>135</ele>
        <time>2021-07-04T13:11:40Z</time>
      </trkpt>
      <trkpt lat="44.22389" lon="4.48634">
        <ele>142</ele>
        <time>2021-07-04T13:12:07Z</time>
      </trkpt>
      <trkpt lat="44.22363" lon="4.48792">
        <ele>149</ele>
        <time>2021-07-04T13:12:34Z</time>
      </trkpt>
      <trkpt lat="44.22417" lon="4.48864">
        <ele>162</ele>
        <time>2021-07-04T13:12:51Z</time>
      </trkpt>
      <trkpt lat="44.22438" lon="4.4891">
        <ele>159</ele>
        <time>2021-07-04T13:13:01Z</time>
      </trkpt>
      <trkpt lat="44.22461" lon="4.48904">
        <ele>160</ele>
        <time>2021-07-04T13:13:06Z</time>
      </trkpt>
      <trkpt lat="44.22473" lon="4.48962">
        <ele>160</ele>
        <time>2021-07-04T13:13:16Z</time>
      </trkpt>
      <trkpt lat="44.22462" lon="4.4899">
        <ele>161</ele>
        <time>2021-07-04T13:13:21Z</time>
      </trkpt>
      <trkpt lat="44.22468" lon="4.49036">
        <ele>165</ele>
        <time>2021-07-04T13:13:29Z</time>
      </trkpt>
      <trkpt lat="44.22439" lon="4.49072">
        <ele>173</ele>
        <time>2021-07-04T13:13:38Z</time>
      </trkpt>
      <trkpt lat="44.22448" lon="4.49118">
        <ele>175</ele>
        <time>2021-07-04T13:13:46Z</time>
      </trkpt>
      <trkpt lat="44.22399" lon="4.49235">
        <ele>183</ele>
        <time>2021-07-04T13:14:09Z</time>
      </trkpt>
      <trkpt lat="44.22432" lon="4.4937">
        <ele>186</ele>
        <time>2021-07-04T13:14:33Z</time>
      </trkpt>
      <trkpt lat="44.22433" lon="4.49381">
        <ele>187</ele>
        <time>2021-07-04T13:14:35Z</time>
      </trkpt>
      <trkpt lat="44.22487" lon="4.49416">
        <ele>197</ele>
        <time>2021-07-04T13:14:49Z</time>
      </trkpt>
      <trkpt lat="44.22498" lon="4.49474">
        <ele>203</ele>
        <time>2021-07-04T13:14:59Z</time>
      </trkpt>
      <trkpt lat="44.22589" lon="4.49442">
        <ele>210</ele>
        <time>2021-07-04T13:15:21Z</time>
      </trkpt>
      <trkpt lat="44.22646" lon="4.49432">
        <ele>213</ele>
        <time>2021-07-04T13:15:34Z</time>
      </trkpt>
      <trkpt lat="44.22676" lon="4.49557">
        <ele>233</ele>
        <time>2021-07-04T13:15:56Z</time>
      </trkpt>
      <trkpt lat="44.22691" lon="4.49649">
        <ele>240</ele>
        <time>2021-07-04T13:16:12Z</time>
      </trkpt>
      <trkpt lat="44.22707" lon="4.49755">
        <ele>242</ele>
        <time>2021-07-04T13:16:30Z</time>
      </trkpt>
      <trkpt lat="44.22736" lon="4.49825">
        <ele>246</ele>
        <time>2021-07-04T13:16:44Z</time>
      </trkpt>
      <trkpt lat="44.22795" lon="4.49928">
        <ele>256</ele>
        <time>2021-07-04T13:17:06Z</time>
      </trkpt>
      <trkpt lat="44.22815" lon="4.50001">
        <ele>256</ele>
        <time>2021-07-04T13:17:19Z</time>
      </trkpt>
      <trkpt lat="44.22847" lon="4.50016">
        <ele>261</ele>
        <time>2021-07-04T13:17:27Z</time>
      </trkpt>
      <trkpt lat="44.22911" lon="4.4998">
        <ele>272</ele>
        <time>2021-07-04T13:17:43Z</time>
      </trkpt>
      <trkpt lat="44.22983" lon="4.49961">
        <ele>277</ele>
        <time>2021-07-04T13:18:00Z</time>
      </trkpt>
      <trkpt lat="44.23045" lon="4.49947">
        <ele>279</ele>
        <time>2021-07-04T13:18:14Z</time>
      </trkpt>
      <trkpt lat="44.23112" lon="4.49944">
        <ele>281</ele>
        <time>2021-07-04T13:18:30Z</time>
      </trkpt>
      <trkpt lat="44.23177" lon="4.49964">
        <ele>285</ele>
        <time>2021-07-04T13:18:46Z</time>
      </trkpt>
      <trkpt lat="44.23234" lon="4.49971">
        <ele>290</ele>
        <time>2021-07-04T13:18:59Z</time>
      </trkpt>
      <trkpt lat="44.23288" lon="4.49956">
        <ele>291</ele>
        <time>2021-07-04T13:19:12Z</time>
      </trkpt>
      <trkpt lat="44.23343" lon="4.49971">
        <ele>298</ele>
        <time>2021-07-04T13:19:25Z</time>
      </trkpt>
      <trkpt lat="44.2338" lon="4.49984">
        <ele>300</ele>
        <time>2021-07-04T13:19:34Z</time>
      </trkpt>
      <trkpt lat="44.23413" lon="4.50018">
        <ele>296</ele>
        <time>2021-07-04T13:19:43Z</time>
      </trkpt>
      <trkpt lat="44.23476" lon="4.49982">
        <ele>299</ele>
        <time>2021-07-04T13:19:59Z</time>
      </trkpt>
      <trkpt lat="44.23512" lon="4.49965">
        <ele>301</ele>
        <time>2021-07-04T13:20:08Z</time>
      </trkpt>
      <trkpt lat="44.23528" lon="4.50011">
        <ele>299</ele>
        <time>2021-07-04T13:20:17Z</time>
      </trkpt>
      <trkpt lat="44.23489" lon="4.50016">
        <ele>293</ele>
        <time>2021-07-04T13:20:26Z</time>
      </trkpt>
      <trkpt lat="44.23424" lon="4.50179">
        <ele>260</ele>
        <time>2021-07-04T13:20:57Z</time>
      </trkpt>
      <trkpt lat="44.23375" lon="4.50238">
        <ele>250</ele>
        <time>2021-07-04T13:21:12Z</time>
      </trkpt>
      <trkpt lat="44.23321" lon="4.50292">
        <ele>242</ele>
        <time>2021-07-04T13:21:28Z</time>
      </trkpt>
      <trkpt lat="44.23264" lon="4.50275">
        <ele>253</ele>
        <time>2021-07-04T13:21:41Z</time>
      </trkpt>
      <trkpt lat="44.23158" lon="4.50404">
        <ele>252</ele>
        <time>2021-07-04T13:22:14Z</time>
      </trkpt>
      <trkpt lat="44.23004" lon="4.50711">
        <ele>222</ele>
        <time>2021-07-04T13:23:17Z</time>
      </trkpt>
      <trkpt lat="44.22801" lon="4.51045">
        <ele>171</ele>
        <time>2021-07-04T13:24:30Z</time>
      </trkpt>
      <trkpt lat="44.22709" lon="4.51152">
        <ele>146</ele>
        <time>2021-07-04T13:24:58Z</time>
      </trkpt>
      <trkpt lat="44.22827" lon="4.5118">
        <ele>144</ele>
        <time>2021-07-04T13:25:26Z</time>
      </trkpt>
      <trkpt lat="44.22926" lon="4.51165">
        <ele>142</ele>
        <time>2021-07-04T13:25:49Z</time>
      </trkpt>
      <trkpt lat="44.22983" lon="4.51204">
        <ele>133</ele>
        <time>2021-07-04T13:26:04Z</time>
      </trkpt>
      <trkpt lat="44.22937" lon="4.51305">
        <ele>120</ele>
        <time>2021-07-04T13:26:24Z</time>
      </trkpt>
      <trkpt lat="44.22863" lon="4.51348">
        <ele>114</ele>
        <time>2021-07-04T13:26:43Z</time>
      </trkpt>
      <trkpt lat="44.22757" lon="4.51418">
        <ele>108</ele>
        <time>2021-07-04T13:27:10Z</time>
      </trkpt>
      <trkpt lat="44.22655" lon="4.51414">
        <ele>104</ele>
        <time>2021-07-04T13:27:34Z</time>
      </trkpt>
      <trkpt lat="44.22606" lon="4.51438">
        <ele>104</ele>
        <time>2021-07-04T13:27:46Z</time>
      </trkpt>
      <trkpt lat="44.22541" lon="4.51453">
        <ele>102</ele>
        <time>2021-07-04T13:28:02Z</time>
      </trkpt>
      <trkpt lat="44.22388" lon="4.51588">
        <ele>101</ele>
        <time>2021-07-04T13:28:44Z</time>
      </trkpt>
      <trkpt lat="44.22371" lon="4.51833">
        <ele>133</ele>
        <time>2021-07-04T13:29:25Z</time>
      </trkpt>
      <trkpt lat="44.22451" lon="4.51702">
        <ele>133</ele>
        <time>2021-07-04T13:29:54Z</time>
      </trkpt>
      <trkpt lat="44.22508" lon="4.51624">
        <ele>126</ele>
        <time>2021-07-04T13:30:13Z</time>
      </trkpt>
      <trkpt lat="44.22581" lon="4.51785">
        <ele>141</ele>
        <time>2021-07-04T13:30:45Z</time>
      </trkpt>
      <trkpt lat="44.22591" lon="4.52019">
        <ele>163</ele>
        <time>2021-07-04T13:31:24Z</time>
      </trkpt>
      <trkpt lat="44.22558" lon="4.52159">
        <ele>180</ele>
        <time>2021-07-04T13:31:48Z</time>
      </trkpt>
      <trkpt lat="44.22575" lon="4.52249">
        <ele>178</ele>
        <time>2021-07-04T13:32:04Z</time>
      </trkpt>
      <trkpt lat="44.22492" lon="4.52397">
        <ele>187</ele>
        <time>2021-07-04T13:32:35Z</time>
      </trkpt>
      <trkpt lat="44.22554" lon="4.52614">
        <ele>175</ele>
        <time>2021-07-04T13:33:15Z</time>
      </trkpt>
      <trkpt lat="44.22545" lon="4.52818">
        <ele>176</ele>
        <time>2021-07-04T13:33:49Z</time>
      </trkpt>
      <trkpt lat="44.22495" lon="4.52983">
        <ele>179</ele>
        <time>2021-07-04T13:34:19Z</time>
      </trkpt>
      <trkpt lat="44.22466" lon="4.53049">
        <ele>180</ele>
        <time>2021-07-04T13:34:32Z</time>
      </trkpt>
      <trkpt lat="44.22405" lon="4.53213">
        <ele>172</ele>
        <time>2021-07-04T13:35:03Z</time>
      </trkpt>
      <trkpt lat="44.22356" lon="4.53372">
        <ele>167</ele>
        <time>2021-07-04T13:35:32Z</time>
      </trkpt>
      <trkpt lat="44.22284" lon="4.53411">
        <ele>164</ele>
        <time>2021-07-04T13:35:50Z</time>
      </trkpt>
      <trkpt lat="44.2222" lon="4.53393">
        <ele>166</ele>
        <time>2021-07-04T13:36:05Z</time>
      </trkpt>
      <trkpt lat="44.22069" lon="4.53452">
        <ele>148</ele>
        <time>2021-07-04T13:36:41Z</time>
      </trkpt>
      <trkpt lat="44.22166" lon="4.53511">
        <ele>160</ele>
        <time>2021-07-04T13:37:06Z</time>
      </trkpt>
      <trkpt lat="44.22219" lon="4.53592">
        <ele>175</ele>
        <time>2021-07-04T13:37:25Z</time>
      </trkpt>
      <trkpt lat="44.22232" lon="4.53639">
        <ele>183</ele>
        <time>2021-07-04T13:37:33Z</time>
      </trkpt>
      <trkpt lat="44.22235" lon="4.53738">
        <ele>199</ele>
        <time>2021-07-04T13:37:50Z</time>
      </trkpt>
      <trkpt lat="44.22163" lon="4.53702">
        <ele>201</ele>
        <time>2021-07-04T13:38:07Z</time>
      </trkpt>
      <trkpt lat="44.22183" lon="4.53802">
        <ele>210</ele>
        <time>2021-07-04T13:38:25Z</time>
      </trkpt>
      <trkpt lat="44.22216" lon="4.5385">
        <ele>212</ele>
        <time>2021-07-04T13:38:36Z</time>
      </trkpt>
      <trkpt lat="44.22228" lon="4.53931">
        <ele>214</ele>
        <time>2021-07-04T13:38:50Z</time>
      </trkpt>
      <trkpt lat="44.22229" lon="4.53978">
        <ele>214</ele>
        <time>2021-07-04T13:38:58Z</time>
      </trkpt>
      <trkpt lat="44.22196" lon="4.54077">
        <ele>206</ele>
        <time>2021-07-04T13:39:16Z</time>
      </trkpt>
      <trkpt lat="44.22332" lon="4.54169">
        <ele>210</ele>
        <time>2021-07-04T13:39:51Z</time>
      </trkpt>
      <trkpt lat="44.22291" lon="4.54343">
        <ele>171</ele>
        <time>2021-07-04T13:40:22Z</time>
      </trkpt>
      <trkpt lat="44.22314" lon="4.5442">
        <ele>169</ele>
        <time>2021-07-04T13:40:36Z</time>
      </trkpt>
      <trkpt lat="44.22248" lon="4.54423">
        <ele>166</ele>
        <time>2021-07-04T13:40:51Z</time>
      </trkpt>
      <trkpt lat="44.22194" lon="4.54418">
        <ele>169</ele>
        <time>2021-07-04T13:41:04Z</time>
      </trkpt>
      <trkpt lat="44.2214" lon="4.54384">
        <ele>167</ele>
        <time>2021-07-04T13:41:18Z</time>
      </trkpt>
      <trkpt lat="44.22023" lon="4.54362">
        <ele>165</ele>
        <time>2021-07-04T13:41:45Z</time>
      </trkpt>
      <trkpt lat="44.21949" lon="4.54401">
        <ele>180</ele>
        <time>2021-07-04T13:42:04Z</time>
      </trkpt>
      <trkpt lat="44.21842" lon="4.54337">
        <ele>191</ele>
        <time>2021-07-04T13:42:31Z</time>
      </trkpt>
      <trkpt lat="44.21811" lon="4.54283">
        <ele>195</ele>
        <time>2021-07-04T13:42:42Z</time>
      </trkpt>
      <trkpt lat="44.21762" lon="4.54152">
        <ele>192</ele>
        <time>2021-07-04T13:43:07Z</time>
      </trkpt>
      <trkpt lat="44.21766" lon="4.54006">
        <ele>173</ele>
        <time>2021-07-04T13:43:32Z</time>
      </trkpt>
      <trkpt lat="44.21742" lon="4.53957">
        <ele>171</ele>
        <time>2021-07-04T13:43:42Z</time>
      </trkpt>
      <trkpt lat="44.21634" lon="4.53822">
        <ele>159</ele>
        <time>2021-07-04T13:44:15Z</time>
      </trkpt>
      <trkpt lat="44.2159" lon="4.53736">
        <ele>145</ele>
        <time>2021-07-04T13:44:33Z</time>
      </trkpt>
      <trkpt lat="44.2155" lon="4.53663">
        <ele>134</ele>
        <time>2021-07-04T13:44:49Z</time>
      </trkpt>
      <trkpt lat="44.21527" lon="4.53624">
        <ele>131</ele>
        <time>2021-07-04T13:44:57Z</time>
      </trkpt>
      <trkpt lat="44.2153" lon="4.53584">
        <ele>130</ele>
        <time>2021-07-04T13:45:04Z</time>
      </trkpt>
      <trkpt lat="44.21523" lon="4.53536">
        <ele>127</ele>
        <time>2021-07-04T13:45:12Z</time>
      </trkpt>
      <trkpt lat="44.21519" lon="4.53489">
        <ele>125</ele>
        <time>2021-07-04T13:45:20Z</time>
      </trkpt>
      <trkpt lat="44.21442" lon="4.53433">
        <ele>119</ele>
        <time>2021-07-04T13:45:40Z</time>
      </trkpt>
      <trkpt lat="44.21427" lon="4.53367">
        <ele>113</ele>
        <time>2021-07-04T13:45:52Z</time>
      </trkpt>
      <trkpt lat="44.21382" lon="4.53272">
        <ele>107</ele>
        <time>2021-07-04T13:46:11Z</time>
      </trkpt>
      <trkpt lat="44.21317" lon="4.53169">
        <ele>106</ele>
        <time>2021-07-04T13:46:34Z</time>
      </trkpt>
      <trkpt lat="44.21273" lon="4.53124">
        <ele>105</ele>
        <time>2021-07-04T13:46:46Z</time>
      </trkpt>
      <trkpt lat="44.2122" lon="4.53157">
        <ele>104</ele>
        <time>2021-07-04T13:47:00Z</time>
      </trkpt>
      <trkpt lat="44.21128" lon="4.53129">
        <ele>97</ele>
        <time>2021-07-04T13:47:22Z</time>
      </trkpt>
      <trkpt lat="44.21214" lon="4.52907">
        <ele>91</ele>
        <time>2021-07-04T13:48:04Z</time>
      </trkpt>
      <trkpt lat="44.21288" lon="4.52918">
        <ele>91</ele>
        <time>2021-07-04T13:48:22Z</time>
      </trkpt>
      <trkpt lat="44.21324" lon="4.5286">
        <ele>90</ele>
        <time>2021-07-04T13:48:34Z</time>
      </trkpt>
      <trkpt lat="44.2136" lon="4.52732">
        <ele>90</ele>
        <time>2021-07-04T13:48:58Z</time>
      </trkpt>
      <trkpt lat="44.21428" lon="4.52736">
        <ele>91</ele>
        <time>2021-07-04T13:49:13Z</time>
      </trkpt>
      <trkpt lat="44.21527" lon="4.52658">
        <ele>92</ele>
        <time>2021-07-04T13:49:40Z</time>
      </trkpt>
      <trkpt lat="44.21565" lon="4.52622">
        <ele>93</ele>
        <time>2021-07-04T13:49:51Z</time>
      </trkpt>
      <trkpt lat="44.21576" lon="4.52622">
        <ele>93</ele>
        <time>2021-07-04T13:49:53Z</time>
      </trkpt>
      <trkpt lat="44.21531" lon="4.52558">
        <ele>91</ele>
        <time>2021-07-04T13:50:08Z</time>
      </trkpt>
      <trkpt lat="44.21514" lon="4.52491">
        <ele>90</ele>
        <time>2021-07-04T13:50:20Z</time>
      </trkpt>
      <trkpt lat="44.21548" lon="4.52315">
        <ele>87</ele>
        <time>2021-07-04T13:50:51Z</time>
      </trkpt>
      <trkpt lat="44.21596" lon="4.5221">
        <ele>86</ele>
        <time>2021-07-04T13:51:12Z</time>
      </trkpt>
      <trkpt lat="44.21683" lon="4.51978">
        <ele>87</ele>
        <time>2021-07-04T13:51:55Z</time>
      </trkpt>
      <trkpt lat="44.21699" lon="4.51884">
        <ele>87</ele>
        <time>2021-07-04T13:52:12Z</time>
      </trkpt>
      <trkpt lat="44.21667" lon="4.51856">
        <ele>85</ele>
        <time>2021-07-04T13:52:20Z</time>
      </trkpt>
      <trkpt lat="44.21639" lon="4.518">
        <ele>81</ele>
        <time>2021-07-04T13:52:32Z</time>
      </trkpt>
      <trkpt lat="44.21522" lon="4.51852">
        <ele>78</ele>
        <time>2021-07-04T13:53:00Z</time>
      </trkpt>
      <trkpt lat="44.21533" lon="4.51697">
        <ele>73</ele>
        <time>2021-07-04T13:53:27Z</time>
      </trkpt>
      <trkpt lat="44.21577" lon="4.51631">
        <ele>72</ele>
        <time>2021-07-04T13:53:42Z</time>
      </trkpt>
      <trkpt lat="44.21568" lon="4.51493">
        <ele>82</ele>
        <time>2021-07-04T13:54:05Z</time>
      </trkpt>
      <trkpt lat="44.21523" lon="4.51474">
        <ele>82</ele>
        <time>2021-07-04T13:54:16Z</time>
      </trkpt>
      <trkpt lat="44.21519" lon="4.51382">
        <ele>90</ele>
        <time>2021-07-04T13:54:31Z</time>
      </trkpt>
      <trkpt lat="44.21636" lon="4.51275">
        <ele>110</ele>
        <time>2021-07-04T13:55:04Z</time>
      </trkpt>
      <trkpt lat="44.21765" lon="4.5118">
        <ele>112</ele>
        <time>2021-07-04T13:55:38Z</time>
      </trkpt>
      <trkpt lat="44.21788" lon="4.51064">
        <ele>113</ele>
        <time>2021-07-04T13:55:58Z</time>
      </trkpt>
      <trkpt lat="44.21722" lon="4.5103">
        <ele>112</ele>
        <time>2021-07-04T13:56:14Z</time>
      </trkpt>
      <trkpt lat="44.21525" lon="4.50918">
        <ele>118</ele>
        <time>2021-07-04T13:57:04Z</time>
      </trkpt>
      <trkpt lat="44.21494" lon="4.50927">
        <ele>116</ele>
        <time>2021-07-04T13:57:12Z</time>
      </trkpt>
      <trkpt lat="44.21485" lon="4.5088">
        <ele>116</ele>
        <time>2021-07-04T13:57:20Z</time>
      </trkpt>
      <trkpt lat="44.21477" lon="4.50796">
        <ele>118</ele>
        <time>2021-07-04T13:57:34Z</time>
      </trkpt>
      <trkpt lat="44.21494" lon="4.50762">
        <ele>120</ele>
        <time>2021-07-04T13:57:41Z</time>
      </trkpt>
      <trkpt lat="44.21393" lon="4.50674">
        <ele>116</ele>
        <time>2021-07-04T13:58:09Z</time>
      </trkpt>
      <trkpt lat="44.21293" lon="4.50601">
        <ele>113</ele>
        <time>2021-07-04T13:58:35Z</time>
      </trkpt>
      <trkpt lat="44.21219" lon="4.50464">
        <ele>117</ele>
        <time>2021-07-04T13:59:04Z</time>
      </trkpt>
      <trkpt lat="44.21244" lon="4.50283">
        <ele>116</ele>
        <time>2021-07-04T13:59:35Z</time>
      </trkpt>
      <trkpt lat="44.21248" lon="4.5021">
        <ele>113</ele>
        <time>2021-07-04T13:59:47Z</time>
      </trkpt>
      <trkpt lat="44.21296" lon="4.50137">
        <ele>116</ele>
        <time>2021-07-04T14:00:03Z</time>
      </trkpt>
      <trkpt lat="44.2132" lon="4.50069">
        <ele>118</ele>
        <time>2021-07-04T14:00:16Z</time>
      </trkpt>
      <trkpt lat="44.21311" lon="4.50024">
        <ele>114</ele>
        <time>2021-07-04T14:00:24Z</time>
      </trkpt>
      <trkpt lat="44.21359" lon="4.49858">
        <ele>119</ele>
        <time>2021-07-04T14:00:54Z</time>
      </trkpt>
      <trkpt lat="44.21371" lon="4.4974">
        <ele>116</ele>
        <time>2021-07-04T14:01:14Z</time>
      </trkpt>
      <trkpt lat="44.21456" lon="4.49616">
        <ele>129</ele>
        <time>2021-07-04T14:01:43Z</time>
      </trkpt>
      <trkpt lat="44.21468" lon="4.49519">
        <ele>121</ele>
        <time>2021-07-04T14:01:59Z</time>
      </trkpt>
      <trkpt lat="44.2154" lon="4.49515">
        <ele>125</ele>
        <time>2021-07-04T14:02:16Z</time>
      </trkpt>
      <trkpt lat="44.21585" lon="4.49388">
        <ele>125</ele>
        <time>2021-07-04T14:02:40Z</time>
      </trkpt>
      <trkpt lat="44.21637" lon="4.49335">
        <ele>136</ele>
        <time>2021-07-04T14:02:55Z</time>
      </trkpt>
      <trkpt lat="44.21679" lon="4.49319">
        <ele>143</ele>
        <time>2021-07-04T14:03:05Z</time>
      </trkpt>
      <trkpt lat="44.21796" lon="4.49202">
        <ele>145</ele>
        <time>2021-07-04T14:03:38Z</time>
      </trkpt>
      <trkpt lat="44.21743" lon="4.4911">
        <ele>132</ele>
        <time>2021-07-04T14:03:58Z</time>
      </trkpt>
      <trkpt lat="44.21748" lon="4.49072">
        <ele>130</ele>
        <time>2021-07-04T14:04:05Z</time>
      </trkpt>
      <trkpt lat="44.21838" lon="4.48955">
        <ele>114</ele>
        <time>2021-07-04T14:04:33Z</time>
      </trkpt>
      <trkpt lat="44.21873" lon="4.4892">
        <ele>107</ele>
        <time>2021-07-04T14:04:43Z</time>
      </trkpt>
      <trkpt lat="44.21892" lon="4.48886">
        <ele>106</ele>
        <time>2021-07-04T14:04:51Z</time>
      </trkpt>
      <trkpt lat="44.21884" lon="4.48842">
        <ele>100</ele>
        <time>2021-07-04T14:04:58Z</time>
      </trkpt>
      <trkpt lat="44.21848" lon="4.48749">
        <ele>92</ele>
        <time>2021-07-04T14:05:16Z</time>
      </trkpt>
      <trkpt lat="44.21863" lon="4.48724">
        <ele>92</ele>
        <time>2021-07-04T14:05:21Z</time>
      </trkpt>
      <trkpt lat="44.21872" lon="4.48659">
        <ele>90</ele>
        <time>2021-07-04T14:05:32Z</time>
      </trkpt>
      <trkpt lat="44.21836" lon="4.4863">
        <ele>91</ele>
        <time>2021-07-04T14:05:42Z</time>
      </trkpt>
      <trkpt lat="44.21812" lon="4.48584">
        <ele>89</ele>
        <time>2021-07-04T14:05:52Z</time>
      </trkpt>
      <trkpt lat="44.21825" lon="4.4857">
        <ele>88</ele>
        <time>2021-07-04T14:05:55Z</time>
      </trkpt>
    </trkseg>
  </trk>
</gpx>